This is the latest recevied weather packets stored in our database for station/object K2BIG. If no packets are shown the sender has not sent any weather packets the latest 10 day(s).
| Time | Temp. | Humidity | Pressure | Rain* | Wind** | Luminosity | Snow |
|---|---|---|---|---|---|---|---|
| 1777738517 | 14.44° C | 60% | 1011.9 hPa | 0 mm | - | - | - |
| 1777738217 | 15° C | 56% | 1011.8 hPa | 0 mm | - | - | - |
| 1777737917 | 15° C | 60% | 1011.9 hPa | 0 mm | - | - | - |
| 1777737617 | 14.44° C | 56% | 1012 hPa | 0 mm | - | - | - |
| 1777737357 | 13.89° C | 58% | 1011.9 hPa | 0 mm | - | - | - |
| 1777737017 | 13.89° C | 59% | 1012 hPa | 0 mm | - | - | - |
| 1777736717 | 13.89° C | 61% | 1012.1 hPa | 0 mm | - | - | - |
| 1777736417 | 13.89° C | 63% | 1012 hPa | 0 mm | - | - | - |
| 1777736117 | 14.44° C | 57% | 1012 hPa | 0 mm | - | - | - |
| 1777735817 | 15° C | 64% | 1012.1 hPa | 0 mm | - | - | - |
| 1777735517 | 14.44° C | 65% | 1012.1 hPa | 0 mm | - | - | - |
| 1777735217 | 13.89° C | 68% | 1012.1 hPa | 0 mm | - | - | - |
| 1777734917 | 13.33° C | 66% | 1012.1 hPa | 0 mm | - | - | - |
| 1777734617 | 12.78° C | 70% | 1012 hPa | 0 mm | - | - | - |
| 1777734317 | 12.78° C | 70% | 1012.2 hPa | 0 mm | - | - | - |
| 1777734017 | 12.22° C | 75% | 1012.2 hPa | 0 mm | - | - | - |
| 1777733717 | 12.22° C | 73% | 1012.2 hPa | 0 mm | - | - | - |
| 1777733416 | 12.22° C | 72% | 1012.2 hPa | 0 mm | - | - | - |
| 1777733117 | 12.22° C | 76% | 1012.1 hPa | 0 mm | - | - | - |
| 1777732817 | 11.67° C | 79% | 1012.2 hPa | 0 mm | - | - | - |
| 1777732517 | 11.67° C | 80% | 1012.2 hPa | 0 mm | - | - | - |
| 1777732217 | 11.11° C | 82% | 1012.3 hPa | 0 mm | - | - | - |
| 1777731917 | 11.11° C | 81% | 1012.1 hPa | 0 mm | - | - | - |
| 1777731617 | 11.11° C | 80% | 1012.1 hPa | 0 mm | - | - | - |
| 1777731317 | 11.11° C | 82% | 1012.1 hPa | 0 mm | - | - | - |
* Rain latest hour (hover to see other rain measurements)
** Current wind speed in m/s (hover to see current wind gust speed)